This is the latest recevied weather packets stored in our database for station/object EA1IRT-1. If no packets are shown the sender has not sent any weather packets the latest 10 day(s).
| Time | Temp. | Humidity | Pressure | Rain* | Wind** | Luminosity | Snow |
|---|---|---|---|---|---|---|---|
| 1778123814 | 11.67° C | 100% | 1012.2 hPa | - | - | - | - |
| 1778122908 | 11.11° C | 100% | 1012.2 hPa | - | - | - | - |
| 1778122008 | 11.11° C | 100% | 1012.1 hPa | - | - | - | - |
| 1778121107 | 11.11° C | 100% | 1012.1 hPa | - | - | - | - |
| 1778120208 | 11.67° C | 100% | 1012.2 hPa | - | - | - | - |
| 1778119288 | 11.67° C | 99% | 1012.4 hPa | - | - | - | - |
| 1778118387 | 11.67° C | 99% | 1012.4 hPa | - | - | - | - |
| 1778117486 | 11.67° C | 97% | 1012.4 hPa | - | - | - | - |
| 1778116586 | 12.22° C | 99% | 1012.7 hPa | - | - | - | - |
| 1778115686 | 12.22° C | 100% | 1012.8 hPa | - | - | - | - |
| 1778114786 | 11.67° C | 100% | 1012.9 hPa | - | - | - | - |
| 1778113886 | 12.22° C | 98% | 1013 hPa | - | - | - | - |
| 1778112986 | 12.22° C | 99% | 1013.2 hPa | - | - | - | - |
| 1778112086 | 12.22° C | 97% | 1013.2 hPa | - | - | - | - |
| 1778111186 | 12.22° C | 96% | 1013.5 hPa | - | - | - | - |
| 1778110286 | 12.22° C | 95% | 1013.5 hPa | - | - | - | - |
| 1778109386 | 12.22° C | 94% | 1013.8 hPa | - | - | - | - |
| 1778108486 | 12.78° C | 91% | 1013.7 hPa | - | - | - | - |
| 1778107586 | 12.22° C | 91% | 1013.8 hPa | - | - | - | - |
| 1778106686 | 12.22° C | 92% | 1013.8 hPa | - | - | - | - |
| 1778105785 | 12.22° C | 92% | 1013.9 hPa | - | - | - | - |
| 1778104894 | 181.67° C | 100% | - | - | - | - | - |
| 1778103945 | 12.78° C | 88% | 1014.1 hPa | - | - | - | - |
| 1778103047 | 181.67° C | 100% | - | - | - | - | - |
| 1778102056 | 13.33° C | 100% | - | - | - | - | - |
* Rain since midnight (hover to see other rain measurements)
** Current wind speed in m/s (hover to see current wind gust speed)